| time (UTC) | temp C | wind direction | speed KPH | gust KPH | rain 1hr cm | rain 24hr cm | rain mn cm | humidity % | barometer mb |
| 20260507041052 | 10 | 126 | 1.6 | 3.2 | 0.00 | 0.00 | 0.00 | 90 | 1021.5 |
| 20260507040552 | 10 | 117 | 1.6 | 3.2 | 0.00 | 0.00 | 0.00 | 90 | 1021.3 |
| 20260507040052 | 10 | 135 | 1.6 | 3.2 | 0.00 | 0.00 | 0.00 | 90 | 1021.2 |
| 20260507035552 | 10 | 137 | 1.6 | 3.2 | 0.00 | 0.00 | 0.00 | 89 | 1021.1 |
| 20260507035052 | 10 | 156 | 1.6 | 3.2 | 0.00 | 0.00 | 0.00 | 90 | 1021.1 |
| 20260507034552 | 10 | 148 | 1.6 | 3.2 | 0.00 | 0.00 | 0.00 | 89 | 1021.1 |
| 20260507034052 | 10 | 128 | 3.2 | 3.2 | 0.00 | 0.00 | 0.00 | 89 | 1021.4 |
| 20260507033552 | 11 | 136 | 1.6 | 3.2 | 0.00 | 0.00 | 0.00 | 89 | 1020.9 |
| 20260507033052 | 11 | 147 | 3.2 | 4.8 | 0.00 | 0.00 | 0.00 | 89 | 1021.3 |
| 20260507032552 | 11 | 140 | 3.2 | 3.2 | 0.00 | 0.00 | 0.00 | 88 | 1021.0 |
| 20260507032052 | 11 | 145 | 3.2 | 3.2 | 0.00 | 0.00 | 0.00 | 88 | 1020.9 |
| 20260507031552 | 11 | 123 | 1.6 | 3.2 | 0.00 | 0.00 | 0.00 | 88 | 1020.9 |
| 20260507031052 | 11 | 129 | 3.2 | 3.2 | 0.00 | 0.00 | 0.00 | 88 | 1021.0 |
| 20260507030552 | 11 | 123 | 4.8 | 4.8 | 0.00 | 0.00 | 0.00 | 87 | 1020.8 |
| 20260507030052 | 11 | 144 | 1.6 | 4.8 | 0.00 | 0.00 | 0.00 | 87 | 1020.9 |
| 20260507025552 | 11 | 120 | 4.8 | 4.8 | 0.00 | 0.00 | 0.00 | 86 | 1021.1 |
| 20260507025052 | 11 | 145 | 3.2 | 4.8 | 0.00 | 0.00 | 0.00 | 86 | 1021.0 |
| 20260507024552 | 11 | 149 | 3.2 | 4.8 | 0.00 | 0.00 | 0.00 | 86 | 1021.0 |
| 20260507024052 | 11 | 131 | 6.4 | 6.4 | 0.00 | 0.00 | 0.00 | 86 | 1021.3 |
| 20260507023552 | 11 | 136 | 3.2 | 4.8 | 0.00 | 0.00 | 0.00 | 86 | 1021.0 |
| 20260507023052 | 11 | 128 | 1.6 | 3.2 | 0.00 | 0.00 | 0.00 | 85 | 1020.8 |
| 20260507022552 | 11 | 121 | 1.6 | 3.2 | 0.00 | 0.00 | 0.00 | 87 | 1021.2 |
| 20260507022052 | 11 | 135 | 3.2 | 3.2 | 0.00 | 0.00 | 0.00 | 87 | 1020.9 |
| 20260507021552 | 11 | 148 | 3.2 | 4.8 | 0.00 | 0.00 | 0.00 | 86 | 1020.8 |
| 20260507021052 | 11 | 132 | 3.2 | 4.8 | 0.00 | 0.00 | 0.00 | 85 | 1020.9 |
| 20260507020552 | 11 | 122 | 3.2 | 4.8 | 0.00 | 0.00 | 0.00 | 86 | 1020.8 |
| 20260507020052 | 11 | 139 | 3.2 | 6.4 | 0.00 | 0.00 | 0.00 | 85 | 1020.8 |
| 20260507015552 | 11 | 141 | 3.2 | 4.8 | 0.00 | 0.00 | 0.00 | 85 | 1020.9 |
| 20260507015052 | 11 | 138 | 3.2 | 3.2 | 0.00 | 0.00 | 0.00 | 85 | 1020.7 |
| 20260507014552 | 11 | 147 | 1.6 | 3.2 | 0.00 | 0.00 | 0.00 | 85 | 1020.9 |
| 20260507014052 | 11 | 138 | 3.2 | 3.2 | 0.00 | 0.00 | 0.00 | 86 | 1020.7 |
| 20260507013552 | 11 | 148 | 1.6 | 3.2 | 0.00 | 0.00 | 0.00 | 85 | 1020.5 |
| 20260507013052 | 11 | 128 | 3.2 | 3.2 | 0.00 | 0.00 | 0.00 | 86 | 1020.6 |
| 20260507012552 | 11 | 129 | 3.2 | 3.2 | 0.00 | 0.00 | 0.00 | 85 | 1020.7 |
| 20260507012052 | 11 | 148 | 1.6 | 3.2 | 0.00 | 0.00 | 0.00 | 84 | 1020.7 |
| 20260507011552 | 11 | 132 | 3.2 | 4.8 | 0.00 | 0.00 | 0.00 | 85 | 1020.6 |
| 20260507011052 | 11 | 150 | 3.2 | 3.2 | 0.00 | 0.00 | 0.00 | 85 | 1020.7 |
| 20260507010552 | 11 | 127 | 1.6 | 3.2 | 0.00 | 0.00 | 0.00 | 86 | 1020.8 |
| 20260507010052 | 11 | 131 | 1.6 | 3.2 | 0.00 | 0.00 | 0.00 | 85 | 1020.8 |
| 20260507005552 | 11 | 133 | 1.6 | 4.8 | 0.00 | 0.00 | 0.00 | 84 | 1020.8 |
| 20260507005052 | 11 | 140 | 3.2 | 3.2 | 0.00 | 0.00 | 0.00 | 85 | 1020.8 |
| 20260507004552 | 11 | 124 | 1.6 | 3.2 | 0.00 | 0.00 | 0.00 | 86 | 1020.9 |
| 20260507004052 | 11 | 119 | 3.2 | 3.2 | 0.00 | 0.00 | 0.00 | 85 | 1020.8 |
| 20260507003552 | 11 | 125 | 4.8 | 6.4 | 0.00 | 0.00 | 0.00 | 84 | 1020.9 |
| 20260507003052 | 11 | 114 | 1.6 | 3.2 | 0.00 | 0.00 | 0.00 | 84 | 1020.7 |
| 20260507002552 | 11 | 132 | 3.2 | 3.2 | 0.00 | 0.00 | 0.00 | 85 | 1020.8 |
| 20260507002052 | 11 | 144 | 3.2 | 4.8 | 0.00 | 0.00 | 0.00 | 84 | 1021.0 |
| 20260507001552 | 11 | 133 | 4.8 | 4.8 | 0.00 | 0.00 | 0.00 | 83 | 1020.7 |
| 20260507001052 | 12 | 116 | 3.2 | 4.8 | 0.00 | 0.00 | 0.00 | 83 | 1020.7 |
| 20260507000552 | 12 | 142 | 3.2 | 3.2 | 0.00 | 0.00 | 0.00 | 83 | 1020.6 |
| 20260507000052 | 11 | 144 | 3.2 | 3.2 | 0.00 | 0.00 | 0.00 | 84 | 1020.8 |
| 20260506235552 | 11 | 125 | 4.8 | 4.8 | 0.00 | 0.00 | 0.00 | 83 | 1020.7 |
| 20260506235052 | 11 | 142 | 3.2 | 4.8 | 0.00 | 0.00 | 0.00 | 83 | 1020.8 |
| 20260506234552 | 11 | 123 | 3.2 | 4.8 | 0.00 | 0.00 | 0.00 | 82 | 1020.9 |
| 20260506234052 | 11 | 128 | 3.2 | 3.2 | 0.00 | 0.00 | 0.00 | 83 | 1020.8 |
| 20260506233552 | 12 | 135 | 3.2 | 3.2 | 0.00 | 0.00 | 0.00 | 81 | 1020.8 |
| 20260506233052 | 12 | 130 | 4.8 | 4.8 | 0.00 | 0.00 | 0.00 | 82 | 1021.0 |
| 20260506232552 | 12 | 119 | 3.2 | 3.2 | 0.00 | 0.00 | 0.00 | 82 | 1020.8 |
| 20260506232052 | 12 | 149 | 1.6 | 3.2 | 0.00 | 0.00 | 0.00 | 82 | 1020.8 |
| 20260506231552 | 12 | 123 | 4.8 | 6.4 | 0.00 | 0.00 | 0.00 | 81 | 1020.9 |
| 20260506231052 | 12 | 129 | 3.2 | 4.8 | 0.00 | 0.00 | 0.00 | 81 | 1020.9 |
| 20260506230552 | 12 | 155 | 3.2 | 3.2 | 0.00 | 0.00 | 0.00 | 81 | 1020.8 |
| 20260506230052 | 12 | 141 | 3.2 | 3.2 | 0.00 | 0.00 | 0.00 | 81 | 1021.0 |
| 20260506225552 | 12 | 132 | 3.2 | 3.2 | 0.00 | 0.00 | 0.00 | 84 | 1020.8 |
| 20260506225052 | 12 | 108 | 3.2 | 4.8 | 0.00 | 0.00 | 0.00 | 81 | 1020.8 |
| 20260506224552 | 12 | 112 | 3.2 | 4.8 | 0.00 | 0.00 | 0.00 | 81 | 1020.9 |
| 20260506224052 | 12 | 107 | 3.2 | 4.8 | 0.00 | 0.00 | 0.00 | 81 | 1020.9 |
| 20260506223552 | 12 | 124 | 3.2 | 4.8 | 0.00 | 0.00 | 0.00 | 80 | 1021.0 |
| 20260506223052 | 12 | 128 | 3.2 | 3.2 | 0.00 | 0.00 | 0.00 | 81 | 1021.0 |
| 20260506222552 | 12 | 139 | 1.6 | 3.2 | 0.00 | 0.00 | 0.00 | 81 | 1020.8 |
| 20260506222052 | 12 | 156 | 1.6 | 3.2 | 0.00 | 0.00 | 0.00 | 80 | 1020.9 |
| 20260506221552 | 12 | 145 | 3.2 | 3.2 | 0.00 | 0.00 | 0.00 | 82 | 1020.9 |
| 20260506221052 | 12 | 130 | 1.6 | 3.2 | 0.00 | 0.00 | 0.00 | 85 | 1021.1 |
| 20260506220552 | 12 | 0 | 0.0 | 1.6 | 0.00 | 0.00 | 0.00 | 82 | 1021.2 |
| 20260506220052 | 12 | 113 | 1.6 | 1.6 | 0.00 | 0.00 | 0.00 | 82 | 1021.0 |
| 20260506215552 | 12 | 154 | 1.6 | 3.2 | 0.00 | 0.00 | 0.00 | 79 | 1020.9 |
| 20260506215052 | 12 | 121 | 1.6 | 3.2 | 0.00 | 0.00 | 0.00 | 81 | 1020.7 |
| 20260506214552 | 12 | 137 | 1.6 | 3.2 | 0.00 | 0.00 | 0.00 | 82 | 1021.2 |
| 20260506214052 | 12 | 135 | 3.2 | 3.2 | 0.00 | 0.00 | 0.00 | 79 | 1021.1 |
| 20260506213552 | 12 | 147 | 1.6 | 1.6 | 0.00 | 0.00 | 0.00 | 78 | 1021.0 |
| 20260506213052 | 12 | 128 | 3.2 | 4.8 | 0.00 | 0.00 | 0.00 | 78 | 1021.2 |
| 20260506212552 | 12 | 150 | 1.6 | 1.6 | 0.00 | 0.00 | 0.00 | 82 | 1021.2 |
| 20260506212052 | 12 | 143 | 3.2 | 4.8 | 0.00 | 0.00 | 0.00 | 78 | 1021.0 |
| 20260506211552 | 12 | 149 | 3.2 | 3.2 | 0.00 | 0.00 | 0.00 | 79 | 1021.1 |
| 20260506211052 | 12 | 122 | 1.6 | 3.2 | 0.00 | 0.00 | 0.00 | 82 | 1021.2 |
| 20260506210552 | 12 | 154 | 1.6 | 1.6 | 0.00 | 0.00 | 0.00 | 80 | 1021.0 |
| 20260506210052 | 12 | 139 | 3.2 | 3.2 | 0.00 | 0.00 | 0.00 | 80 | 1021.2 |
| 20260506205552 | 12 | 125 | 1.6 | 3.2 | 0.00 | 0.00 | 0.00 | 80 | 1021.2 |
| 20260506205052 | 12 | 146 | 3.2 | 3.2 | 0.00 | 0.00 | 0.00 | 79 | 1020.9 |
| 20260506204552 | 12 | 153 | 3.2 | 3.2 | 0.00 | 0.00 | 0.00 | 78 | 1021.1 |
| 20260506204052 | 12 | 146 | 1.6 | 3.2 | 0.00 | 0.00 | 0.00 | 76 | 1021.1 |
| 20260506203552 | 12 | 191 | 1.6 | 1.6 | 0.00 | 0.00 | 0.00 | 77 | 1020.8 |
| 20260506203052 | 12 | 162 | 3.2 | 3.2 | 0.00 | 0.00 | 0.00 | 78 | 1020.8 |
| 20260506202552 | 12 | 0 | 0.0 | 3.2 | 0.00 | 0.00 | 0.00 | 77 | 1020.9 |
| 20260506202052 | 12 | 153 | 1.6 | 3.2 | 0.00 | 0.00 | 0.00 | 80 | 1020.8 |
| 20260506201552 | 12 | 139 | 3.2 | 4.8 | 0.00 | 0.00 | 0.00 | 77 | 1020.9 |
| 20260506201052 | 12 | 145 | 1.6 | 3.2 | 0.00 | 0.00 | 0.00 | 82 | 1020.7 |
| 20260506200552 | 12 | 163 | 3.2 | 3.2 | 0.00 | 0.00 | 0.00 | 81 | 1020.7 |
| 20260506200052 | 12 | 155 | 3.2 | 3.2 | 0.00 | 0.00 | 0.00 | 78 | 1020.9 |
| 20260506195552 | 12 | 165 | 3.2 | 3.2 | 0.00 | 0.00 | 0.00 | 79 | 1021.0 |
| 20260506195052 | 12 | 156 | 1.6 | 3.2 | 0.00 | 0.00 | 0.00 | 80 | 1021.0 |
| 20260506194552 | 12 | 145 | 3.2 | 3.2 | 0.00 | 0.00 | 0.00 | 79 | 1020.9 |
| 20260506194052 | 11 | 153 | 1.6 | 3.2 | 0.00 | 0.00 | 0.00 | 81 | 1020.8 |
| 20260506193552 | 11 | 154 | 1.6 | 3.2 | 0.00 | 0.00 | 0.00 | 79 | 1020.7 |
| 20260506193052 | 11 | 160 | 3.2 | 3.2 | 0.00 | 0.00 | 0.00 | 82 | 1021.0 |
| 20260506192552 | 11 | 138 | 3.2 | 4.8 | 0.00 | 0.00 | 0.00 | 82 | 1020.7 |
| 20260506192052 | 11 | 149 | 4.8 | 4.8 | 0.00 | 0.00 | 0.00 | 82 | 1020.9 |
| 20260506191552 | 11 | 141 | 4.8 | 6.4 | 0.00 | 0.00 | 0.00 | 83 | 1020.6 |
| 20260506191052 | 11 | 137 | 3.2 | 4.8 | 0.00 | 0.00 | 0.00 | 81 | 1020.8 |
| 20260506190552 | 11 | 123 | 3.2 | 4.8 | 0.00 | 0.00 | 0.00 | 81 | 1020.6 |
| 20260506190052 | 11 | 161 | 1.6 | 3.2 | 0.00 | 0.00 | 0.00 | 83 | 1020.5 |
| 20260506185552 | 11 | 162 | 1.6 | 3.2 | 0.00 | 0.00 | 0.00 | 84 | 1020.8 |
| 20260506185052 | 11 | 148 | 4.8 | 4.8 | 0.00 | 0.00 | 0.00 | 83 | 1020.5 |
| 20260506184552 | 11 | 123 | 3.2 | 3.2 | 0.00 | 0.00 | 0.00 | 84 | 1020.4 |
| 20260506184052 | 11 | 151 | 1.6 | 3.2 | 0.00 | 0.00 | 0.00 | 83 | 1020.3 |
| 20260506183552 | 11 | 162 | 3.2 | 3.2 | 0.00 | 0.00 | 0.00 | 84 | 1020.6 |
| 20260506183052 | 11 | 146 | 3.2 | 4.8 | 0.00 | 0.00 | 0.00 | 84 | 1020.6 |
| 20260506182552 | 11 | 137 | 3.2 | 3.2 | 0.00 | 0.00 | 0.00 | 86 | 1020.5 |
| 20260506182052 | 11 | 117 | 4.8 | 6.4 | 0.00 | 0.00 | 0.00 | 85 | 1020.6 |
| 20260506181552 | 11 | 124 | 3.2 | 6.4 | 0.00 | 0.00 | 0.00 | 87 | 1020.4 |
| 20260506181052 | 11 | 104 | 4.8 | 4.8 | 0.00 | 0.00 | 0.00 | 90 | 1020.5 |
| 20260506180552 | 11 | 105 | 3.2 | 3.2 | 0.00 | 0.00 | 0.00 | 89 | 1020.7 |
| 20260506180052 | 11 | 151 | 1.6 | 4.8 | 0.00 | 0.00 | 0.00 | 88 | 1020.3 |
| 20260506175552 | 11 | 139 | 1.6 | 4.8 | 0.00 | 0.00 | 0.00 | 88 | 1020.5 |
| 20260506175052 | 11 | 139 | 3.2 | 3.2 | 0.00 | 0.00 | 0.00 | 86 | 1020.5 |
| 20260506174552 | 11 | 149 | 3.2 | 3.2 | 0.00 | 0.00 | 0.00 | 86 | 1020.4 |
| 20260506174052 | 11 | 157 | 3.2 | 3.2 | 0.00 | 0.00 | 0.00 | 87 | 1020.5 |
| 20260506173552 | 11 | 146 | 3.2 | 4.8 | 0.00 | 0.00 | 0.00 | 86 | 1020.1 |
| 20260506173052 | 11 | 159 | 3.2 | 3.2 | 0.00 | 0.00 | 0.00 | 85 | 1020.2 |
| 20260506172552 | 11 | 140 | 1.6 | 3.2 | 0.00 | 0.00 | 0.00 | 87 | 1020.1 |
| 20260506172052 | 11 | 150 | 1.6 | 3.2 | 0.00 | 0.00 | 0.00 | 87 | 1019.8 |
| 20260506171552 | 11 | 157 | 3.2 | 3.2 | 0.00 | 0.00 | 0.00 | 88 | 1020.1 |
| 20260506171052 | 11 | 130 | 3.2 | 4.8 | 0.00 | 0.00 | 0.00 | 87 | 1019.8 |
| 20260506170552 | 11 | 134 | 1.6 | 3.2 | 0.00 | 0.00 | 0.00 | 88 | 1020.1 |
| 20260506170052 | 11 | 126 | 3.2 | 4.8 | 0.00 | 0.00 | 0.00 | 87 | 1020.2 |
| 20260506165552 | 11 | 131 | 1.6 | 3.2 | 0.00 | 0.00 | 0.00 | 88 | 1020.1 |
| 20260506165052 | 11 | 157 | 3.2 | 3.2 | 0.00 | 0.00 | 0.00 | 87 | 1020.2 |
| 20260506164552 | 11 | 165 | 3.2 | 3.2 | 0.00 | 0.00 | 0.00 | 88 | 1019.8 |
| 20260506164052 | 11 | 138 | 3.2 | 4.8 | 0.00 | 0.00 | 0.00 | 88 | 1020.1 |
| 20260506163552 | 11 | 172 | 3.2 | 3.2 | 0.00 | 0.00 | 0.00 | 88 | 1020.0 |
| 20260506163052 | 11 | 163 | 1.6 | 3.2 | 0.00 | 0.00 | 0.00 | 88 | 1020.4 |
| 20260506162552 | 11 | 156 | 3.2 | 3.2 | 0.00 | 0.00 | 0.00 | 89 | 1020.4 |
| 20260506162052 | 11 | 144 | 3.2 | 3.2 | 0.00 | 0.00 | 0.00 | 88 | 1020.4 |
| 20260506161552 | 11 | 154 | 3.2 | 4.8 | 0.00 | 0.00 | 0.00 | 88 | 1020.4 |
| 20260506161052 | 11 | 148 | 3.2 | 3.2 | 0.00 | 0.00 | 0.00 | 89 | 1020.2 |
| 20260506160552 | 11 | 119 | 1.6 | 3.2 | 0.00 | 0.00 | 0.00 | 88 | 1020.2 |
| 20260506160052 | 11 | 145 | 1.6 | 3.2 | 0.00 | 0.00 | 0.00 | 88 | 1020.2 |
| 20260506155552 | 11 | 133 | 4.8 | 6.4 | 0.00 | 0.00 | 0.00 | 88 | 1019.9 |
| 20260506155052 | 11 | 148 | 4.8 | 4.8 | 0.00 | 0.00 | 0.00 | 89 | 1019.8 |
| 20260506154552 | 11 | 120 | 4.8 | 6.4 | 0.00 | 0.00 | 0.00 | 88 | 1019.4 |
| 20260506154052 | 11 | 104 | 3.2 | 3.2 | 0.00 | 0.00 | 0.00 | 88 | 1019.7 |
| 20260506153552 | 11 | 139 | 1.6 | 1.6 | 0.00 | 0.00 | 0.00 | 88 | 1019.5 |
| 20260506153052 | 11 | 143 | 3.2 | 6.4 | 0.00 | 0.00 | 0.00 | 88 | 1019.4 |
| 20260506152552 | 11 | 145 | 3.2 | 3.2 | 0.00 | 0.00 | 0.00 | 88 | 1019.6 |
| 20260506152052 | 11 | 129 | 3.2 | 3.2 | 0.00 | 0.00 | 0.00 | 90 | 1019.4 |
| 20260506151552 | 10 | 132 | 4.8 | 4.8 | 0.00 | 0.00 | 0.00 | 89 | 1019.6 |
| 20260506151052 | 10 | 150 | 3.2 | 3.2 | 0.00 | 0.00 | 0.00 | 90 | 1019.8 |
| 20260506150552 | 10 | 133 | 3.2 | 3.2 | 0.00 | 0.00 | 0.00 | 91 | 1019.8 |
| 20260506150052 | 10 | 134 | 3.2 | 3.2 | 0.00 | 0.00 | 0.00 | 92 | 1019.8 |
| 20260506145552 | 10 | 151 | 3.2 | 3.2 | 0.00 | 0.00 | 0.00 | 91 | 1019.9 |
| 20260506145052 | 10 | 148 | 3.2 | 3.2 | 0.00 | 0.00 | 0.00 | 91 | 1020.0 |
| 20260506144552 | 10 | 143 | 3.2 | 3.2 | 0.00 | 0.00 | 0.00 | 91 | 1020.1 |
| 20260506144052 | 10 | 120 | 1.6 | 3.2 | 0.00 | 0.00 | 0.00 | 92 | 1019.9 |
| 20260506143552 | 10 | 162 | 3.2 | 3.2 | 0.00 | 0.00 | 0.00 | 91 | 1019.6 |
| 20260506143052 | 10 | 136 | 1.6 | 4.8 | 0.00 | 0.00 | 0.00 | 92 | 1019.6 |
| 20260506142552 | 10 | 139 | 3.2 | 4.8 | 0.00 | 0.00 | 0.00 | 92 | 1019.4 |
| 20260506142052 | 10 | 140 | 3.2 | 4.8 | 0.00 | 0.00 | 0.00 | 92 | 1019.4 |
| 20260506141552 | 10 | 110 | 4.8 | 6.4 | 0.00 | 0.00 | 0.00 | 93 | 1019.6 |
| 20260506141052 | 10 | 136 | 1.6 | 3.2 | 0.00 | 0.00 | 0.00 | 93 | 1019.5 |
| 20260506140552 | 10 | 131 | 3.2 | 3.2 | 0.00 | 0.00 | 0.00 | 93 | 1019.7 |
| 20260506140052 | 10 | 138 | 3.2 | 4.8 | 0.00 | 0.00 | 0.00 | 93 | 1019.7 |
| 20260506135552 | 10 | 142 | 3.2 | 4.8 | 0.00 | 0.00 | 0.00 | 94 | 1019.6 |
| 20260506135052 | 10 | 130 | 1.6 | 4.8 | 0.00 | 0.00 | 0.00 | 94 | 1019.4 |
| 20260506134552 | 10 | 158 | 3.2 | 3.2 | 0.00 | 0.00 | 0.00 | 95 | 1019.6 |
| 20260506134052 | 10 | 141 | 3.2 | 4.8 | 0.00 | 0.00 | 0.00 | 95 | 1019.4 |
| 20260506133552 | 10 | 141 | 4.8 | 4.8 | 0.00 | 0.00 | 0.00 | 95 | 1019.5 |
| 20260506133052 | 10 | 149 | 4.8 | 6.4 | 0.00 | 0.00 | 0.00 | 95 | 1019.5 |
| 20260506132552 | 10 | 128 | 3.2 | 4.8 | 0.00 | 0.00 | 0.00 | 96 | 1019.5 |
| 20260506132052 | 10 | 145 | 3.2 | 3.2 | 0.00 | 0.00 | 0.00 | 96 | 1019.5 |
| 20260506131552 | 10 | 154 | 3.2 | 4.8 | 0.00 | 0.00 | 0.00 | 97 | 1019.6 |
| 20260506131052 | 10 | 134 | 3.2 | 3.2 | 0.00 | 0.00 | 0.00 | 97 | 1019.1 |
| 20260506130552 | 9 | 139 | 3.2 | 4.8 | 0.00 | 0.00 | 0.00 | 97 | 1019.5 |
| 20260506130052 | 9 | 132 | 1.6 | 3.2 | 0.00 | 0.00 | 0.00 | 97 | 1019.3 |
| 20260506125552 | 9 | 120 | 1.6 | 3.2 | 0.00 | 0.00 | 0.00 | 97 | 1019.3 |
| 20260506125052 | 9 | 137 | 1.6 | 3.2 | 0.00 | 0.00 | 0.00 | 97 | 1019.1 |
| 20260506124552 | 9 | 143 | 1.6 | 3.2 | 0.00 | 0.00 | 0.00 | 97 | 1019.1 |
| 20260506124052 | 9 | 139 | 4.8 | 4.8 | 0.00 | 0.00 | 0.00 | 97 | 1019.0 |
| 20260506123552 | 9 | 139 | 1.6 | 1.6 | 0.00 | 0.00 | 0.00 | 98 | 1019.0 |
| 20260506123052 | 9 | 134 | 1.6 | 3.2 | 0.00 | 0.00 | 0.00 | 98 | 1019.0 |
| 20260506122552 | 9 | 129 | 4.8 | 4.8 | 0.00 | 0.00 | 0.00 | 98 | 1018.9 |
| 20260506122052 | 9 | 135 | 3.2 | 3.2 | 0.00 | 0.00 | 0.00 | 98 | 1019.0 |
| 20260506121552 | 9 | 132 | 3.2 | 3.2 | 0.00 | 0.00 | 0.00 | 98 | 1019.1 |
| 20260506121052 | 9 | 126 | 3.2 | 4.8 | 0.00 | 0.00 | 0.00 | 98 | 1019.0 |
| 20260506120552 | 9 | 137 | 3.2 | 3.2 | 0.00 | 0.00 | 0.00 | 98 | 1019.0 |
| 20260506120052 | 8 | 153 | 3.2 | 3.2 | 0.00 | 0.00 | 0.00 | 98 | 1018.7 |
| 20260506115552 | 8 | 147 | 1.6 | 3.2 | 0.00 | 0.00 | 0.00 | 98 | 1018.8 |
| 20260506115052 | 8 | 143 | 1.6 | 3.2 | 0.00 | 0.00 | 0.00 | 98 | 1018.8 |
| 20260506114552 | 8 | 148 | 3.2 | 3.2 | 0.00 | 0.00 | 0.00 | 98 | 1018.8 |
| 20260506114052 | 8 | 140 | 3.2 | 4.8 | 0.00 | 0.00 | 0.00 | 98 | 1018.8 |
| 20260506113552 | 8 | 131 | 1.6 | 3.2 | 0.00 | 0.00 | 0.00 | 98 | 1018.9 |
| 20260506113052 | 8 | 145 | 3.2 | 3.2 | 0.00 | 0.00 | 0.00 | 98 | 1018.9 |
| 20260506112552 | 8 | 139 | 3.2 | 3.2 | 0.00 | 0.00 | 0.00 | 98 | 1018.6 |
| 20260506112052 | 8 | 146 | 3.2 | 4.8 | 0.00 | 0.00 | 0.00 | 98 | 1018.5 |
| 20260506111552 | 8 | 133 | 3.2 | 4.8 | 0.00 | 0.00 | 0.00 | 97 | 1018.7 |
| 20260506111052 | 8 | 156 | 1.6 | 3.2 | 0.00 | 0.00 | 0.00 | 97 | 1018.7 |
| 20260506110552 | 8 | 149 | 3.2 | 4.8 | 0.00 | 0.00 | 0.00 | 97 | 1018.6 |
| 20260506110052 | 8 | 147 | 3.2 | 3.2 | 0.00 | 0.00 | 0.00 | 97 | 1018.6 |
| 20260506105552 | 8 | 146 | 3.2 | 3.2 | 0.00 | 0.00 | 0.00 | 97 | 1018.4 |
| 20260506105052 | 8 | 130 | 3.2 | 6.4 | 0.00 | 0.00 | 0.00 | 97 | 1018.5 |
| 20260506104552 | 8 | 141 | 4.8 | 4.8 | 0.00 | 0.00 | 0.00 | 97 | 1018.4 |
| 20260506104052 | 7 | 138 | 3.2 | 3.2 | 0.00 | 0.00 | 0.00 | 97 | 1018.4 |
| 20260506103552 | 7 | 135 | 3.2 | 4.8 | 0.00 | 0.00 | 0.00 | 97 | 1018.4 |
| 20260506103052 | 7 | 131 | 3.2 | 3.2 | 0.00 | 0.00 | 0.00 | 97 | 1018.4 |
| 20260506102552 | 7 | 135 | 3.2 | 4.8 | 0.00 | 0.00 | 0.00 | 96 | 1018.2 |
| 20260506102052 | 7 | 127 | 1.6 | 3.2 | 0.00 | 0.00 | 0.00 | 97 | 1018.4 |
| 20260506101552 | 7 | 160 | 3.2 | 3.2 | 0.00 | 0.00 | 0.00 | 97 | 1018.2 |
| 20260506101052 | 7 | 137 | 1.6 | 3.2 | 0.00 | 0.00 | 0.00 | 96 | 1018.2 |
| 20260506100552 | 7 | 133 | 3.2 | 4.8 | 0.00 | 0.00 | 0.00 | 96 | 1018.2 |
| 20260506100052 | 7 | 186 | 3.2 | 3.2 | 0.00 | 0.00 | 0.00 | 95 | 1018.4 |
| 20260506095552 | 7 | 143 | 3.2 | 3.2 | 0.00 | 0.00 | 0.00 | 95 | 1018.3 |
| 20260506095052 | 7 | 167 | 1.6 | 3.2 | 0.00 | 0.00 | 0.00 | 95 | 1018.4 |
| 20260506094552 | 7 | 144 | 1.6 | 3.2 | 0.00 | 0.00 | 0.00 | 95 | 1018.2 |
| 20260506094052 | 7 | 158 | 1.6 | 3.2 | 0.00 | 0.00 | 0.00 | 95 | 1018.1 |
| 20260506093552 | 7 | 117 | 1.6 | 3.2 | 0.00 | 0.00 | 0.00 | 94 | 1018.0 |
| 20260506093052 | 7 | 113 | 1.6 | 3.2 | 0.00 | 0.00 | 0.00 | 94 | 1018.3 |
| 20260506092552 | 7 | 146 | 3.2 | 3.2 | 0.00 | 0.00 | 0.00 | 93 | 1017.8 |
| 20260506092052 | 7 | 131 | 1.6 | 3.2 | 0.00 | 0.00 | 0.00 | 95 | 1017.9 |
| 20260506091552 | 7 | 162 | 1.6 | 3.2 | 0.00 | 0.00 | 0.00 | 94 | 1018.2 |
| 20260506091052 | 7 | 149 | 1.6 | 3.2 | 0.00 | 0.00 | 0.00 | 94 | 1018.0 |
| 20260506090552 | 7 | 162 | 1.6 | 3.2 | 0.00 | 0.00 | 0.00 | 94 | 1017.9 |
| 20260506090052 | 7 | 157 | 1.6 | 3.2 | 0.00 | 0.00 | 0.00 | 94 | 1018.0 |
| 20260506085552 | 7 | 0 | 0.0 | 3.2 | 0.00 | 0.00 | 0.00 | 94 | 1018.1 |
| 20260506085052 | 7 | 121 | 1.6 | 4.8 | 0.00 | 0.00 | 0.00 | 94 | 1018.1 |
| 20260506084552 | 7 | 128 | 1.6 | 3.2 | 0.00 | 0.00 | 0.00 | 94 | 1017.9 |
| 20260506084052 | 7 | 124 | 3.2 | 3.2 | 0.00 | 0.00 | 0.00 | 94 | 1017.7 |
| 20260506083552 | 7 | 0 | 0.0 | 3.2 | 0.00 | 0.00 | 0.00 | 93 | 1017.8 |
| 20260506083052 | 7 | 168 | 1.6 | 3.2 | 0.00 | 0.00 | 0.00 | 93 | 1017.8 |
| 20260506082552 | 7 | 147 | 1.6 | 3.2 | 0.00 | 0.00 | 0.00 | 93 | 1017.5 |
| 20260506082052 | 7 | 146 | 1.6 | 3.2 | 0.00 | 0.00 | 0.00 | 92 | 1017.8 |
| 20260506081552 | 7 | 129 | 3.2 | 3.2 | 0.00 | 0.00 | 0.00 | 93 | 1017.7 |
| 20260506081052 | 7 | 137 | 1.6 | 3.2 | 0.00 | 0.00 | 0.00 | 93 | 1017.6 |
| 20260506080552 | 7 | 126 | 1.6 | 3.2 | 0.00 | 0.00 | 0.00 | 93 | 1017.4 |
| 20260506073052 | 8 | 182 | 1.6 | 3.2 | 0.00 | 0.00 | 0.00 | 93 | 1017.4 |
| 20260506072552 | 8 | 149 | 1.6 | 1.6 | 0.00 | 0.00 | 0.00 | 93 | 1017.1 |
| 20260506072052 | 8 | 117 | 1.6 | 3.2 | 0.00 | 0.00 | 0.00 | 92 | 1017.3 |
| 20260506071552 | 8 | 95 | 1.6 | 3.2 | 0.00 | 0.00 | 0.00 | 91 | 1017.2 |
| 20260506071052 | 8 | 141 | 1.6 | 3.2 | 0.00 | 0.00 | 0.00 | 91 | 1017.1 |
| 20260506070552 | 8 | 155 | 1.6 | 3.2 | 0.00 | 0.00 | 0.00 | 91 | 1017.0 |
| 20260506062052 | 9 | 154 | 3.2 | 4.8 | 0.00 | 0.00 | 0.00 | 90 | 1016.9 |
| 20260506061552 | 10 | 166 | 1.6 | 1.6 | 0.00 | 0.00 | 0.00 | 90 | 1016.9 |
| 20260506061052 | 10 | 153 | 3.2 | 3.2 | 0.00 | 0.00 | 0.00 | 91 | 1016.8 |
| 20260506060552 | 10 | 0 | 0.0 | 3.2 | 0.00 | 0.00 | 0.00 | 91 | 1016.7 |
| 20260506051052 | 10 | 139 | 1.6 | 1.6 | 0.00 | 0.00 | 0.00 | 89 | 1016.1 |
| 20260506050552 | 10 | 121 | 1.6 | 1.6 | 0.00 | 0.00 | 0.00 | 89 | 1016.1 |
| 20260506045052 | 10 | 137 | 1.6 | 3.2 | 0.00 | 0.00 | 0.00 | 88 | 1015.7 |
| 20260506044552 | 11 | 136 | 1.6 | 3.2 | 0.00 | 0.00 | 0.00 | 88 | 1015.8 |
| 20260506044052 | 11 | 139 | 1.6 | 3.2 | 0.00 | 0.00 | 0.00 | 88 | 1016.1 |
| 20260506043552 | 11 | 158 | 3.2 | 3.2 | 0.00 | 0.00 | 0.00 | 87 | 1015.8 |
| 20260506043052 | 11 | 158 | 1.6 | 3.2 | 0.00 | 0.00 | 0.00 | 86 | 1016.1 |
| 20260506042552 | 11 | 80 | 1.6 | 1.6 | 0.00 | 0.00 | 0.00 | 85 | 1015.9 |
| 20260506042052 | 11 | 148 | 1.6 | 3.2 | 0.00 | 0.00 | 0.00 | 85 | 1015.7 |
| 20260506041552 | 11 | 167 | 3.2 | 3.2 | 0.00 | 0.00 | 0.00 | 85 | 1015.7 |